CW9561 Weather Reports


Display with metric or nautical units.
time (UTC)temp
F
wind
direction
speed
MPH
gust
MPH
rain 1hr
in
rain 24hr
in
rain mn
in
humidity
%
barometer
mb
20260905135020 54 281 0.0 0.0 0.00 0.00 0.00 61 1028.9
20260905134023 51 280 0.0 0.0 0.00 0.00 0.00 68 1029.1
20260905131022 47 280 0.0 0.0 0.00 0.00 0.00 71 1027.9
20260905130021 46 280 0.0 0.0 0.00 0.00 0.00 72 1027.9
20260905125022 45 280 0.0 0.0 0.00 0.00 0.00 73 1027.9
20260905124021 45 280 2.0 0.0 0.00 0.00 0.00 73 1027.9
20260905121038 46 280 2.0 0.0 0.00 0.00 0.00 70 1028.2
20260905120039 47 280 0.0 0.0 0.00 0.00 0.00 69 1028.1
20260905115036 47 280 0.0 0.0 0.00 0.00 0.00 68 1028.1
20260905113038 49 280 0.0 0.0 0.00 0.00 0.00 63 1028.3
20260905112018 49 280 0.0 0.0 0.00 0.00 0.00 64 1028.1
20260905105035 48 280 0.0 0.0 0.00 0.00 0.00 67 1027.1
20260905104036 48 280 0.0 0.0 0.00 0.00 0.00 67 1027.1
20260905103031 49 280 0.0 0.0 0.00 0.00 0.00 65 1027.2
20260905102031 50 280 0.0 0.0 0.00 0.00 0.00 64 1027.1
20260905095035 53 280 0.0 0.0 0.00 0.00 0.00 58 1026.8
20260905094036 54 280 0.0 0.0 0.00 0.00 0.00 57 1026.7
20260905093032 52 280 0.0 0.0 0.00 0.00 0.00 59 1026.5
20260905092032 51 280 0.0 0.0 0.00 0.00 0.00 61 1026.5
20260905091028 49 280 0.0 0.0 0.00 0.00 0.00 64 1026.6
20260905090029 49 280 2.0 0.0 0.00 0.00 0.00 65 1026.6
20260905085030 49 280 0.0 0.0 0.00 0.00 0.00 65 1026.6
20260905084028 50 280 0.0 0.0 0.00 0.00 0.00 64 1026.6
20260905083025 50 280 0.0 0.0 0.00 0.00 0.00 64 1026.6
20260905081024 51 280 0.0 0.0 0.00 0.00 0.00 62 1026.3
20260905080020 51 280 0.0 0.0 0.00 0.00 0.00 61 1026.2
20260905075024 52 280 1.0 0.0 0.00 0.00 0.00 61 1026.2
20260905074020 53 280 0.0 0.0 0.00 0.00 0.00 59 1026.2
20260905073039 54 280 0.0 0.0 0.00 0.00 0.00 56 1026.3
20260905072020 55 280 0.0 0.0 0.00 0.00 0.00 55 1026.3
20260905071037 55 280 0.0 0.0 0.00 0.00 0.00 54 1026.1
20260905070033 56 280 0.0 0.0 0.00 0.00 0.00 53 1025.9
20260905063022 56 280 0.0 0.0 0.00 0.00 0.00 52 1026.0
20260905062037 56 280 0.0 0.0 0.00 0.00 0.00 53 1026.0
20260905061036 56 280 0.0 0.0 0.00 0.00 0.00 53 1026.1
20260905060033 57 280 0.0 0.0 0.00 0.00 0.00 53 1026.1
20260905055036 57 280 0.0 0.0 0.00 0.00 0.00 52 1026.0
20260905054033 57 280 0.0 0.0 0.00 0.00 0.00 52 1025.8
20260905053029 56 280 0.0 0.0 0.00 0.00 0.00 53 1025.8
20260905052026 57 280 0.0 0.0 0.00 0.00 0.00 53 1026.0
20260905051026 56 280 0.0 0.0 0.00 0.00 0.00 54 1026.1
20260905050027 55 280 0.0 0.0 0.00 0.00 0.00 55 1026.0
20260905045023 54 280 0.0 0.0 0.00 0.00 0.00 57 1026.1
20260905044039 53 280 0.0 0.0 0.00 0.00 0.00 59 1026.2
20260905043035 53 280 0.0 0.0 0.00 0.00 0.00 60 1026.1
20260905041035 55 280 0.0 0.0 0.00 0.00 0.00 57 1026.1
20260905040034 56 280 0.0 0.0 0.00 0.00 0.00 55 1026.1
20260905035028 57 280 1.0 0.0 0.00 0.00 0.00 54 1026.1
20260905034026 56 280 2.0 0.0 0.00 0.00 0.00 54 1026.1
20260905032025 56 280 1.0 0.0 0.00 0.00 0.00 54 1025.9
20260905030022 59 280 0.0 0.0 0.00 0.00 0.00 51 1025.9
20260905024023 60 280 0.0 0.0 0.00 0.00 0.00 49 1025.7
20260905023041 60 280 0.0 0.0 0.00 0.00 0.00 48 1025.6
20260905022037 61 280 0.0 0.0 0.00 0.00 0.00 47 1025.4
20260905021034 62 280 0.0 0.0 0.00 0.00 0.00 45 1025.0
20260905020034 62 280 0.0 0.0 0.00 0.00 0.00 45 1024.9
20260905014036 65 280 0.0 0.0 0.00 0.00 0.00 40 1024.7
20260905011026 68 280 0.0 0.0 0.00 0.00 0.00 37 1024.4
20260905010027 69 211 0.0 0.0 0.00 0.00 0.00 37 1024.4
20260905005022 69 252 0.0 0.0 0.00 0.00 0.00 36 1024.3
20260905004022 70 250 0.0 0.0 0.00 0.00 0.00 35 1024.3
20260905003039 71 203 1.0 0.0 0.00 0.00 0.00 35 1024.3
20260905002036 71 194 1.0 0.0 0.00 0.00 0.00 33 1024.2
20260905001035 71 219 1.0 0.0 0.00 0.00 0.00 33 1024.3
20260904235032 73 227 1.0 0.0 0.00 0.00 0.00 32 1024.3
20260904234034 73 190 1.0 0.0 0.00 0.00 0.00 32 1024.3
20260904232038 74 225 0.0 0.0 0.00 0.00 0.00 31 1024.4
20260904231034 74 187 1.0 0.0 0.00 0.00 0.00 30 1024.5
20260904225028 75 130 1.0 0.0 0.00 0.00 0.00 32 1024.4
20260904223033 76 132 1.0 0.0 0.00 0.00 0.00 30 1024.5
20260904222030 77 259 0.0 0.0 0.00 0.00 0.00 31 1024.4
20260904221030 76 207 1.0 0.0 0.00 0.00 0.00 30 1024.5
20260904215026 76 218 1.0 0.0 0.00 0.00 0.00 30 1024.7
20260904214027 76 213 2.0 0.0 0.00 0.00 0.00 30 1024.8
20260904213027 76 126 0.0 0.0 0.00 0.00 0.00 31 1024.8
20260904212026 75 186 1.0 0.0 0.00 0.00 0.00 31 1024.7
20260904211022 75 266 2.0 0.0 0.00 0.00 0.00 35 1024.8
20260904210023 75 272 2.0 0.0 0.00 0.00 0.00 35 1024.9
20260904205039 76 142 1.0 0.0 0.00 0.00 0.00 33 1024.8
20260904204036 76 168 2.0 0.0 0.00 0.00 0.00 35 1024.8
20260904203032 76 223 2.0 0.0 0.00 0.00 0.00 34 1025.1
20260904202029 74 254 1.0 0.0 0.00 0.00 0.00 34 1025.0
20260904201029 73 161 1.0 0.0 0.00 0.00 0.00 35 1025.4
20260904200025 74 159 1.0 0.0 0.00 0.00 0.00 35 1025.4
20260904195024 73 288 2.0 0.0 0.00 0.00 0.00 35 1025.5
20260904194041 74 252 2.0 0.0 0.00 0.00 0.00 36 1025.5
20260904193039 74 269 2.0 0.0 0.00 0.00 0.00 35 1025.5
20260904192038 73 98 1.0 0.0 0.00 0.00 0.00 36 1025.5
20260904191032 73 315 1.0 0.0 0.00 0.00 0.00 37 1025.7
20260904190028 73 281 2.0 0.0 0.00 0.00 0.00 38 1025.8
20260904184026 72 252 2.0 0.0 0.00 0.00 0.00 38 1026.2
20260904183022 72 227 2.0 0.0 0.00 0.00 0.00 39 1026.4
20260904182021 72 175 1.0 0.0 0.00 0.00 0.00 39 1026.6
20260904181036 72 331 1.0 0.0 0.00 0.00 0.00 41 1026.8
20260904180035 72 102 1.0 0.0 0.00 0.00 0.00 41 1026.9
20260904175038 71 210 1.0 0.0 0.00 0.00 0.00 41 1026.7
20260904174035 70 261 2.0 0.0 0.00 0.00 0.00 45 1026.9
20260904173039 70 130 2.0 0.0 0.00 0.00 0.00 44 1026.3
20260904172036 69 132 1.0 0.0 0.00 0.00 0.00 46 1026.2
20260904171039 69 214 2.0 0.0 0.00 0.00 0.00 46 1026.2
20260904170034 69 194 2.0 0.0 0.00 0.00 0.00 45 1026.0
20260904165035 69 234 2.0 0.0 0.00 0.00 0.00 47 1026.0
20260904164031 69 86 1.0 0.0 0.00 0.00 0.00 48 1026.1
20260904163031 66 337 0.0 0.0 0.00 0.00 0.00 49 1026.2
20260904162027 64 97 3.0 0.0 0.00 0.00 0.00 50 1026.3
20260904161025 63 65 0.0 0.0 0.00 0.00 0.00 48 1026.4
20260904160021 61 82 1.0 0.0 0.00 0.00 0.00 50 1026.6
20260904155038 60 29 0.0 0.0 0.00 0.00 0.00 48 1026.8
20260904154038 59 84 0.0 0.0 0.00 0.00 0.00 50 1026.8
20260904153035 59 15 0.0 0.0 0.00 0.00 0.00 49 1026.7
20260904151031 57 14 0.0 0.0 0.00 0.00 0.00 52 1027.1
20260904150027 56 11 0.0 0.0 0.00 0.00 0.00 54 1026.5
20260904145027 55 360 0.0 0.0 0.00 0.00 0.00 54 1026.4
20260904144021 54 360 0.0 0.0 0.00 0.00 0.00 57 1026.5
20260904143022 53 350 0.0 0.0 0.00 0.00 0.00 58 1026.5
20260904142022 53 153 0.0 0.0 0.00 0.00 0.00 58 1026.4
20260904141023 53 153 0.0 0.0 0.00 0.00 0.00 59 1026.1